CZ-4B DEB (46472 NORAD) Tracking and Keplerian Element Data

This shows tracking and keplerian element data for the satellite.

Feedback or suggestion? Click here.




ElementValue
Catalog46472
NameCZ-4B DEB
Epoch Orbit411
Epoch Day294.75518471
Epoch Year2020
RAAN316.5785
Inclination65.9126
Eccentricity0.0029542
Argument of Perigee352.7872
Mean Anonmoly7.277
Mean Motion13.91410452
Decay Rate-5.2E-07
L11 46472U 20066D 20294.75518471 -.00000052 00000-0 25031-4 0 9995
L22 46472 65.9126 316.5785 0029542 352.7872 7.2770 13.91410452 4114

Live tracking and technical data element details for CZ-4B DEB (NORAD 46472). CZ-4B DEB can be tracked NOW for your location showing map with azimuth and elevation plus other details from your city location.

Track the satellite on the map from your city or location and see movement details for azimuth, elevation, latitude, longitude, range, height, and movement on the map or in text.







IsCatalogInMostPopularTable: catalog: 46472, numindb: 20
Update: records affected: 1



GetName: 46472 CZ-4B DEB

Hit Count: updated at: Wed, 02 Dec 2020 19:34:37 GMT